Location: Echte
(51.7841°N, 10.0629°E)
Time: 00:37:41
(UTC+00:00)

Daily predictions for brighter satellites

Satellite Brightness Start Highest point End
(mag) Time Altitude Azimuth Time Altitude Azimuth Time Altitude Azimuth
SL-16 R/B 3.9 00:24:55 34° NE 00:24:55 34° NE 00:29:27 10° N
ATLAS CENTAUR R/B 4.5 00:30:37 37° E 00:30:37 37° E 00:37:41 10° ENE
CZ-2D R/B 4.2 00:27:55 10° NNE 00:30:15 22° NE 00:30:15 22° NE
Cosmos 2082 Rocket 3.9 00:50:59 30° NNE 00:50:59 30° NNE 00:53:50 10° NNE
Cosmos 2333 Rocket 4.4 00:53:35 10° NNW 00:54:49 17° NNW 00:54:49 17° NNW
ATLAS 5 CENTAUR R/B 4.4 01:05:49 14° NNE 01:05:49 14° NNE 01:06:43 10° NE
COSMOS 2428 4.4 00:58:21 10° NNW 01:03:20 30° NE 01:08:18 10° ESE
Cosmos 2219 Rocket 4.1 01:07:00 10° NNW 01:09:04 22° NNW 01:09:04 22° NNW
USA 215 3.5 01:10:15 10° E 01:16:10 63° NE 01:16:10 63° NE
ATLAS 3B R/B 4.5 01:10:10 10° NW 01:27:31 - SE 01:12:34 23° NW
ATLAS 2AS CENTAUR R/B 3.0 01:22:05 70° ENE 01:22:05 70° ENE 01:28:24 10° NE
USA 229 DEB 4.3 01:33:28 10° NW 01:40:34 60° NE 01:48:21 10° ESE
USA 229 4.3 01:33:33 10° NW 01:40:40 60° NE 01:48:24 10° ESE
Resurs 1-4 Rocket 3.2 01:40:22 10° NNE 01:43:37 38° N 01:43:37 38° N
S3M 4.2 01:41:01 10° N 01:46:23 65° N 01:46:23 65° N
NOSS 3-1 (A) 3.8 01:55:41 65° WNW 01:56:59 81° SW 02:05:41 10° SE
ATLAS CENTAUR R/B 4.0 01:59:18 14° NNE 01:59:18 14° NNE 02:01:11 10° NE
USA 281 3.1 01:59:56 10° NNE 02:06:32 77° ESE 02:07:16 69° S
SL-16 R/B 3.6 02:10:00 32° NW 02:10:00 32° NW 02:13:23 10° NNW
ADEOS II 2.6 02:02:36 10° NNE 02:06:36 52° N 02:06:36 52° N
Cosmos 2266 Rocket 3.9 02:09:14 83° S 02:09:32 88° E 02:16:00 10° N
Cosmos 2315 Rocket 4.0 02:05:38 10° N 02:12:04 86° E 02:13:09 64° SSE
CZ-2D R/B 3.1 02:07:46 10° N 02:11:32 38° NNW 02:11:32 38° NNW
CZ-2C R/B 3.6 02:19:07 36° NNW 02:19:07 36° NNW 02:22:15 10° NNW
MSX 4.2 02:12:26 10° N 02:17:14 51° NW 02:17:14 51° NW
IDEFIX/ARIANE 42P 3.6 02:16:20 10° N 02:19:53 34° NNW 02:19:53 34° NNW
Cosmos 292 Rocket 4.2 02:23:49 56° N 02:23:49 56° N 02:27:38 10° NNE
Cosmos 2221 3.9 02:26:56 31° N 02:26:56 31° N 02:29:21 10° N
Cosmos 2237 Rocket 3.4 02:19:38 10° NNW 02:25:03 42° NE 02:30:25 10° ESE
Cosmos 1125 Rocket 4.1 02:25:57 44° SE 02:26:56 50° ESE 02:31:57 10° NNE
Cosmos 1536 4.3 02:25:59 10° N 02:29:34 34° ENE 02:32:06 17° SE
CZ-4 R/B 4.0 02:25:29 10° NNE 02:29:31 65° N 02:29:31 65° N
Lacrosse 5 rocket 2.3 02:31:30 42° ENE 02:31:30 42° ENE 02:34:14 10° ENE
Lacrosse 4 Rocket 3.7 02:33:06 15° NNW 02:33:06 15° NNW 02:35:24 10° NNE
Cosmos 2082 Rocket 3.9 02:32:50 19° NW 02:33:26 19° NNW 02:37:30 10° NNE
SL-16 R/B 4.4 02:29:30 10° NNW 02:34:02 24° NE 02:38:34 10° E
ATLAS CENTAUR R/B 3.7 02:34:10 47° W 02:36:39 73° NNW 02:49:58 10° ENE
Cosmos 1500 Rocket 3.7 02:35:02 10° N 02:39:12 71° NE 02:39:12 71° NE
FENGYUN 3A 3.6 02:39:25 10° N 02:44:44 63° WNW 02:44:55 62° W
YAOGAN 11 4.5 02:40:51 10° SSE 02:45:18 64° ENE 02:49:41 10° N
NOSS 0 Rocket 3.9 02:40:28 10° NNW 02:46:47 84° ENE 02:53:03 10° SSE
Cosmos 1378 4.0 02:47:37 45° NE 02:47:37 45° NE 02:50:20 10° NNE
COSMOS 2428 2.5 02:42:25 10° NW 02:48:06 71° WSW 02:53:46 10° SSE
ATLAS 5 CENTAUR R/B 3.6 02:46:57 16° NNW 02:48:34 19° N 02:51:57 10° NE
SL-27 R/B 4.3 02:50:53 23° NNE 02:50:53 23° NNE 02:52:15 10° NNE
Timation 1 Rocket 4.3 02:49:01 57° WSW 02:50:02 68° NW 02:56:02 10° NNE
CZ-2C R/B 2.6 02:50:02 10° NNE 02:54:48 64° ESE 02:56:49 32° S
ALOS 2.2 02:51:49 10° N 02:56:20 61° WNW 02:56:20 61° WNW
Cosmos 1151 Rocket 4.4 02:55:05 10° SSE 02:59:07 38° E 03:03:11 10° NNE
USA 215 3.2 02:53:15 10° SE 02:59:47 69° SW 03:03:31 28° WNW
Cosmos 2298 Rocket 4.1 03:05:10 30° S 03:07:46 74° ESE 03:13:05 10° NNE
Cosmos 1842 Rocket 4.1 03:09:34 43° WNW 03:09:34 43° WNW 03:13:27 10° N
Cosmos 2084 Rocket 4.0 03:11:36 39° NW 03:11:41 39° NNW 03:15:22 10° NE
Meteor 1-27 Rocket 4.4 03:07:06 10° S 03:12:35 55° E 03:18:12 10° NNE
ATLAS 2AS CENTAUR R/B 3.5 03:09:31 29° WNW 03:12:46 43° NNW 03:19:29 10° NE
Cosmos 1655 Rocket 4.4 03:13:15 37° WSW 03:14:56 45° WNW 03:21:03 10° N
DMSP B5D2-2 4.4 03:11:08 10° SSE 03:16:20 69° ENE 03:21:37 10° N
CZ-2C R/B 3.3 03:12:09 10° N 03:17:47 56° WNW 03:19:54 36° SW
Cosmos 2150 Rocket 4.0 03:16:29 28° SSW 03:19:23 87° ESE 03:24:40 10° NNE
Thor Agena Rocket 4.0 03:15:18 10° N 03:20:16 43° WNW 03:21:27 37° W
Cosmos 1269 Rocket 4.2 03:16:38 10° NNW 03:21:56 72° ENE 03:27:12 10° SSE
Resurs 1-4 Rocket 3.9 03:21:35 10° NNW 03:24:34 15° NW 03:24:40 15° NW
Helios 1A 3.5 03:21:12 10° SSE 03:25:13 57° ENE 03:29:15 10° N
Cosmos 1743 Rocket 3.7 03:22:17 10° NNW 03:26:29 48° W 03:27:40 37° SW
Meteor 1-11 Rocket 3.8 03:21:45 10° NNW 03:27:37 67° W 03:33:31 10° S
Cosmos 614 Rocket 3.9 03:22:44 10° NNW 03:27:54 89° SW 03:33:05 10° SSE
Cosmos 1805 Rocket 3.7 03:24:41 10° NNW 03:28:52 48° W 03:30:45 29° SSW
Cosmos 1980 3.6 03:25:33 10° NNW 03:31:14 76° WSW 03:36:52 10° SSE
USA 229 DEB 4.1 03:24:31 10° NW 03:31:37 51° WSW 03:39:16 10° SSE
USA 229 4.1 03:24:37 10° NW 03:31:43 52° WSW 03:39:21 10° SSE
Cosmos 1633 Rocket 3.5 03:30:45 10° N 03:35:08 65° ENE 03:39:31 10° SSE
Cosmos 1745 Rocket 4.3 03:31:02 10° S 03:37:20 73° E 03:43:42 10° NNE
Sich 1 3.3 03:33:34 10° NNW 03:37:41 43° W 03:41:11 14° SSW
ATLAS CENTAUR R/B 2.3 03:34:48 10° NNW 03:38:14 40° NE 03:41:38 10° ESE
Cosmos 1484 Rocket 3.0 03:36:19 10° NNE 03:39:56 64° ESE 03:43:33 10° S
Meteor 2-9 Rocket 4.2 03:34:14 10° NNW 03:40:07 81° W 03:45:52 10° S
NOAA 11 4.2 03:34:52 10° NNE 03:40:25 89° WNW 03:45:54 10° SSW
GP-B 3.2 03:38:17 19° SSW 03:41:14 50° W 03:45:35 10° N
H-2A R/B 4.0 03:36:22 10° NNE 03:41:16 33° E 03:46:05 10° SSE
YAOGAN 6 2.6 03:41:20 10° N 03:44:38 49° WNW 03:45:34 37° WSW
ADEOS II 3.8 03:43:37 10° NNW 03:46:41 16° NW 03:47:29 15° WNW
BlueWalker 3 3.9 03:48:24 15° SSW 03:48:24 15° SSW 03:49:41 10° S
Meteor 1-10 Rocket 4.3 03:44:44 14° SSW 03:49:22 56° WNW 03:54:51 10° N
USA 281 4.1 03:44:53 10° NNE 03:50:35 33° NW 03:54:08 20° W
IRS-1D 4.0 03:45:59 10° N 03:50:57 41° WNW 03:54:06 20° WSW
CZ-2D R/B 4.2 03:50:11 10° NNW 03:51:44 11° NW 03:52:49 11° WNW
Envisat 3.1 03:48:23 10° N 03:53:19 53° WNW 03:57:47 12° SW
SKYMED 2 4.4 03:56:32 10° SSE 04:00:45 54° ENE 04:05:01 10° N
Cosmos 2297 Rocket 2.3 03:56:29 10° SSW 04:02:07 81° ESE 04:07:49 10° NNE
Cosmos 1939 Rocket 4.2 03:59:04 10° NNE 04:02:44 41° E 04:06:27 10° S
Cosmos 1536 3.8 04:02:25 10° NW 04:05:34 24° W 04:07:16 18° SW
Lacrosse 5 rocket 1.8 04:06:40 19° W 04:09:10 44° NNW 04:12:51 10° ENE
Cosmos 2237 Rocket 2.5 04:03:48 10° NW 04:09:11 44° WSW 04:14:31 10° S
Cosmos 1125 Rocket 4.3 04:06:14 19° WSW 04:09:12 32° NW 04:13:52 10° NNE
Cosmos 1470 Rocket 3.6 04:07:27 10° N 04:11:58 87° W 04:16:26 10° S
Meteor 2-10 3.9 04:09:07 10° NNW 04:14:25 72° W 04:19:31 10° S
Cosmos 2181 Rocket 4.3 04:08:48 10° N 04:15:00 70° ENE 04:21:06 10° SSE
SL-16 R/B 2.3 04:13:17 10° NNW 04:19:01 84° ENE 04:24:44 10° SSE
Okean 1 3.6 04:17:05 10° SW 04:20:42 40° WNW 04:24:22 10° N
Cosmos 1726 2.0 04:18:31 10° NNW 04:21:51 49° W 04:25:10 10° S
H-2A R/B 2.4 04:18:41 10° N 04:22:10 69° WNW 04:25:38 10° SSW
SL-08 R/B 3.4 04:18:30 10° SSE 04:23:20 86° ENE 04:28:16 10° NNW
ERS-2 2.2 04:20:28 10° NNE 04:23:37 64° ESE 04:26:44 10° S
Cosmos 1975 2.7 04:20:25 10° NNW 04:24:21 70° W 04:28:17 10° S
IRS-1C 4.1 04:24:05 10° NNE 04:29:26 77° WNW 04:34:45 10° SSW
Nadezhda 1 Rocket 4.5 04:24:48 10° NNW 04:30:31 38° W 04:36:07 10° SSW
COSMOS 2428 4.2 04:28:43 10° WNW 04:31:20 13° W 04:33:56 10° WSW
Cosmos 2344 4.0 04:24:35 10° SSW 04:31:56 64° SE 04:39:22 10° NE
CZ-2C R/B 3.6 04:28:56 10° N 04:32:32 22° WNW 04:36:04 10° WSW
ALOS 4.2 04:31:14 10° NNW 04:32:48 12° NW 04:34:22 10° WNW
ATLAS 5 CENTAUR R/B 3.4 04:29:57 10° NW 04:34:02 31° NNE 04:38:53 10° E
Cosmos 1151 Rocket 4.0 04:32:58 10° SW 04:36:43 27° WNW 04:40:30 10° N
Cosmos 1766 4.3 04:33:33 10° N 04:37:13 49° ENE 04:40:53 10° SSE
Cosmos 407 Rocket 3.7 04:35:29 10° NNW 04:40:53 80° ENE 04:46:14 10° SSE
Cosmos 1733 3.6 04:38:00 10° NNW 04:41:28 38° W 04:44:54 10° SSW
USA 215 4.3 04:38:25 10° S 04:43:36 25° SW 04:48:49 10° WNW
Cosmos 1515 Rocket 3.5 04:40:16 10° SSW 04:44:40 80° WNW 04:49:04 10° N
ARIANE 5 R/B 2.5 04:39:50 10° N 04:44:49 62° WNW 04:49:43 10° SSW
Helios 1B rocket 3.5 04:42:30 10° NNE 04:46:23 48° E 04:50:15 10° S
BREEZE-M DEB (TANK) 4.5 04:42:35 10° WSW 04:47:08 75° SSE 05:10:59 10° E
Cosmos 1328 Rocket 4.0 04:43:35 10° SW 04:47:44 40° WNW 04:51:53 10° N
COSMO-SKYMED 1 2.7 04:44:34 10° S 04:48:50 55° W 04:53:07 10° NNW
Cosmos 2227 Rocket 2.2 04:43:17 10° SSW 04:48:57 80° WNW 04:54:41 10° NNE
Cosmos 44 Rocket 3.6 04:45:12 10° WSW 04:50:13 57° NW 04:55:22 10° NE
Cosmos 1933 Rocket 3.5 04:45:55 10° NNW 04:50:14 66° W 04:54:31 10° S
Cosmos 2263 Rocket 3.6 04:46:44 10° S 04:51:59 42° ESE 04:57:14 10° NE
Genesis I 3.2 04:48:30 10° NW 04:52:09 56° SW 04:55:45 10° SSE
CZ-2D R/B 3.6 04:50:57 10° N 04:55:14 60° WNW 04:59:31 10° SSW
